Weather History for Beach, ND

Change the Weather History Date:

Tuesday, April 30, 2013

  Actual Average (KGDV) Record (KGDV)
Temperature  
Mean Temperature 32 °F -  
Max Temperature 41 °F 59 °F 73 °F (1998)
Min Temperature 23 °F 36 °F 23 °F (2013)
Degree Days  
Heating Degree Days 33    
Moisture  
Dew Point 24 °F    
Average Humidity 67    
Maximum Humidity 87    
Minimum Humidity 52    
Precipitation  
Precipitation 0.00 in - - ()
Sea Level Pressure  
Sea Level Pressure 29.85 in    
Wind  
Wind Speed 21 mph (WNW)    
Max Wind Speed 34 mph    
Max Gust Speed 44 mph    
Visibility 10 miles    
Events Rain    
Averages and records for this station are not official NWS values.
T = Trace of Precipitation, MM = Missing Value Source: NWS Daily Summary

Daily Weather History Graph

Daily Weather History Graph

Search for Another Location

Airport:

Trip Planner

Search our weather history database for the weather conditions in past years. The results will help you decide how hot, cold, wet, or windy it might be!

Date:

Astronomy

Apr. 30, 2013 Rise Set
Actual Time 5:41 AM MDT 8:05 PM MDT
Civil Twilight 5:07 AM MDT 8:39 PM MDT
Nautical Twilight 4:25 AM MDT 9:21 PM MDT
Astronomical Twilight 3:37 AM MDT 10:10 PM MDT
Moon 12:34 AM MDT (4/30) 10:09 AM MDT (4/30)
Length of Visible Light 15h 31m
Length of Day
14h 23m
Waning Gibbous, 69% of the Moon is Illuminated
Apr 30
Waning Gibbous
May 2
Last Quarter
May 9
New
May 17
First Quarter
May 24
Full

Hourly Weather History & Observations

Time (MDT) Temp. Windchill Dew Point Humidity Pressure Visibility Wind Dir Wind Speed Gust Speed Precip Events Conditions
12:15 AM 41.0 °F 33.9 °F 32.0 °F 70% 29.57 in 10.0 mi West 12.7 mph - N/A   Clear
12:35 AM 41.0 °F 33.9 °F 30.2 °F 65% 29.57 in 10.0 mi West 12.7 mph - N/A   Partly Cloudy
12:55 AM 41.0 °F 33.9 °F 28.4 °F 61% 29.58 in 10.0 mi West 12.7 mph - N/A   Partly Cloudy
1:15 AM 39.2 °F 30.8 °F 26.6 °F 61% 29.58 in 10.0 mi West 15.0 mph - N/A   Mostly Cloudy
1:35 AM 39.2 °F 31.2 °F 26.6 °F 61% 29.58 in 10.0 mi West 13.8 mph - N/A   Mostly Cloudy
1:55 AM 37.4 °F 28.2 °F 24.8 °F 60% 29.58 in 10.0 mi West 16.1 mph 21.9 mph N/A   Mostly Cloudy
2:15 AM 37.4 °F 26.9 °F 24.8 °F 60% 29.58 in 10.0 mi WSW 20.7 mph 25.3 mph N/A   Clear
2:35 AM 37.4 °F 26.9 °F 24.8 °F 60% 29.58 in 10.0 mi WSW 20.7 mph 27.6 mph N/A   Clear
2:55 AM 37.4 °F 26.4 °F 24.8 °F 60% 29.58 in 10.0 mi West 23.0 mph 32.2 mph N/A   Clear
3:15 AM 37.4 °F 27.5 °F 24.8 °F 60% 29.59 in 10.0 mi West 18.4 mph 27.6 mph N/A   Partly Cloudy
3:35 AM 37.4 °F 25.2 °F 26.6 °F 65% 29.59 in 10.0 mi West 28.8 mph 39.1 mph N/A   Mostly Cloudy
3:55 AM 37.4 °F 24.6 °F 30.2 °F 75% 29.60 in 10.0 mi West 32.2 mph 41.4 mph N/A   Overcast
4:15 AM 35.6 °F 22.5 °F 32.0 °F 87% 29.61 in 10.0 mi West 29.9 mph 41.4 mph N/A   Overcast
4:35 AM 35.6 °F 22.5 °F 32.0 °F 87% 29.61 in 10.0 mi West 29.9 mph 39.1 mph N/A   Overcast
4:55 AM 35.6 °F 21.7 °F 32.0 °F 87% 29.62 in 10.0 mi WNW 34.5 mph 42.6 mph N/A   Overcast
5:15 AM 35.6 °F 22.3 °F 32.0 °F 87% 29.63 in 10.0 mi West 31.1 mph 40.3 mph N/A   Overcast
5:35 AM 35.6 °F 23.2 °F 32.0 °F 87% 29.66 in 10.0 mi West 26.5 mph 40.3 mph N/A   Overcast
5:55 AM 33.8 °F 19.9 °F 30.2 °F 87% 29.67 in 10.0 mi West 31.1 mph 38.0 mph N/A   Overcast
6:15 AM 33.8 °F 21.0 °F 28.4 °F 81% 29.68 in 10.0 mi WNW 25.3 mph 35.7 mph N/A   Overcast
6:35 AM 32.0 °F 19.8 °F 28.4 °F 87% 29.70 in 4.0 mi WNW 20.7 mph 31.1 mph N/A Rain Light Rain
6:55 AM 32.0 °F 19.8 °F 28.4 °F 87% 29.71 in 10.0 mi West 20.7 mph 31.1 mph N/A   Overcast
7:15 AM 32.0 °F 19.2 °F 28.4 °F 87% 29.72 in 6.0 mi WNW 23.0 mph 29.9 mph N/A Rain Light Rain
7:35 AM 33.8 °F 20.5 °F 26.6 °F 75% 29.72 in 10.0 mi West 27.6 mph 35.7 mph N/A   Mostly Cloudy
7:55 AM 35.6 °F 22.7 °F 26.6 °F 70% 29.73 in 10.0 mi West 28.8 mph 36.8 mph N/A   Scattered Clouds
8:15 AM 35.6 °F 22.5 °F 26.6 °F 70% 29.73 in 10.0 mi West 29.9 mph 39.1 mph N/A   Scattered Clouds
8:35 AM 35.6 °F 22.3 °F 26.6 °F 70% 29.74 in 10.0 mi West 31.1 mph 39.1 mph N/A   Mostly Cloudy
8:55 AM 35.6 °F 22.7 °F 26.6 °F 70% 29.76 in 10.0 mi West 28.8 mph 40.3 mph N/A   Overcast
9:15 AM 35.6 °F 22.3 °F 26.6 °F 70% 29.77 in 10.0 mi WNW 31.1 mph 41.4 mph N/A   Mostly Cloudy
9:35 AM 35.6 °F 22.3 °F 26.6 °F 70% 29.77 in 10.0 mi WNW 31.1 mph 39.1 mph N/A   Overcast
9:55 AM 35.6 °F 21.9 °F 24.8 °F 65% 29.77 in 10.0 mi WNW 33.4 mph 43.7 mph N/A   Overcast
10:15 AM 35.6 °F 23.4 °F 26.6 °F 70% 29.78 in 10.0 mi WNW 25.3 mph 36.8 mph N/A   Overcast
10:35 AM 37.4 °F 24.6 °F 26.6 °F 65% 29.78 in 10.0 mi WNW 32.2 mph 40.3 mph N/A   Overcast
10:55 AM 37.4 °F 25.0 °F 26.6 °F 65% 29.79 in 10.0 mi WNW 29.9 mph 38.0 mph N/A   Overcast
11:15 AM 37.4 °F 24.2 °F 24.8 °F 60% 29.81 in 10.0 mi WNW 34.5 mph 41.4 mph N/A   Overcast
11:35 AM 35.6 °F 22.5 °F 24.8 °F 65% 29.83 in 10.0 mi WNW 29.9 mph 42.6 mph N/A   Overcast
11:55 AM 35.6 °F 22.1 °F 24.8 °F 65% 29.84 in 10.0 mi WNW 32.2 mph 38.0 mph N/A   Overcast
12:15 PM 35.6 °F 22.7 °F 24.8 °F 65% 29.84 in 10.0 mi WNW 28.8 mph 38.0 mph N/A   Overcast
12:35 PM 37.4 °F 24.8 °F 24.8 °F 60% 29.85 in 10.0 mi WNW 31.1 mph 38.0 mph N/A   Overcast
12:55 PM 39.2 °F 27.2 °F 24.8 °F 56% 29.85 in 10.0 mi WNW 31.1 mph 36.8 mph N/A   Overcast
1:15 PM 37.4 °F 25.2 °F 24.8 °F 60% 29.86 in 10.0 mi WNW 28.8 mph 39.1 mph N/A   Overcast
1:35 PM 37.4 °F 25.4 °F 24.8 °F 60% 29.87 in 10.0 mi NW 27.6 mph 38.0 mph N/A   Overcast
1:55 PM 37.4 °F 25.0 °F 24.8 °F 60% 29.88 in 10.0 mi WNW 29.9 mph 39.1 mph N/A   Overcast
2:15 PM 39.2 °F 27.4 °F 24.8 °F 56% 29.88 in 10.0 mi NW 29.9 mph 40.3 mph N/A   Overcast
2:35 PM 37.4 °F 25.2 °F 24.8 °F 60% 29.89 in 10.0 mi WNW 28.8 mph 38.0 mph N/A   Overcast
2:55 PM 37.4 °F 25.6 °F 23.0 °F 56% 29.91 in 10.0 mi NW 26.5 mph 34.5 mph N/A   Overcast
3:15 PM 37.4 °F 26.6 °F 23.0 °F 56% 29.92 in 10.0 mi NW 21.9 mph 35.7 mph N/A   Overcast
3:35 PM 35.6 °F 23.7 °F 23.0 °F 60% 29.94 in 10.0 mi NW 24.2 mph 35.7 mph N/A   Overcast
3:55 PM 35.6 °F 23.0 °F 23.0 °F 60% 29.95 in 10.0 mi NW 27.6 mph 34.5 mph N/A   Overcast
4:15 PM 35.6 °F 23.2 °F 23.0 °F 60% 29.96 in 10.0 mi NW 26.5 mph 32.2 mph N/A   Overcast
4:35 PM 35.6 °F 23.7 °F 21.2 °F 56% 29.97 in 10.0 mi NW 24.2 mph 34.5 mph N/A   Overcast
4:55 PM 35.6 °F 23.0 °F 21.2 °F 56% 29.98 in 10.0 mi NW 27.6 mph 32.2 mph N/A   Overcast
5:15 PM 35.6 °F 23.7 °F 19.4 °F 52% 30.00 in 10.0 mi NW 24.2 mph 32.2 mph N/A   Overcast
5:35 PM 35.6 °F 23.4 °F 19.4 °F 52% 30.01 in 10.0 mi NW 25.3 mph 29.9 mph N/A   Overcast
5:55 PM 35.6 °F 24.2 °F 19.4 °F 52% 30.03 in 10.0 mi NW 21.9 mph 31.1 mph N/A   Overcast
6:15 PM 33.8 °F 22.5 °F 19.4 °F 56% 30.04 in 10.0 mi NNW 19.6 mph 28.8 mph N/A   Overcast
6:35 PM 33.8 °F 21.0 °F 19.4 °F 56% 30.05 in 10.0 mi NNW 25.3 mph 28.8 mph N/A   Overcast
7:15 PM 32.0 °F 19.5 °F 19.4 °F 60% 30.07 in 10.0 mi NNW 21.9 mph 28.8 mph N/A   Overcast
7:35 PM 32.0 °F 20.5 °F 17.6 °F 55% 30.08 in 10.0 mi NNW 18.4 mph - N/A   Overcast
7:55 PM 32.0 °F 21.6 °F 17.6 °F 55% 30.10 in 10.0 mi NNW 15.0 mph 19.6 mph N/A   Overcast
8:15 PM 32.0 °F 24.2 °F 17.6 °F 55% 30.12 in 10.0 mi NNW 9.2 mph - N/A   Overcast
8:35 PM 32.0 °F 23.6 °F 19.4 °F 60% 30.14 in 10.0 mi NNW 10.4 mph - N/A   Overcast
8:55 PM 30.2 °F 23.4 °F 19.4 °F 64% 30.15 in 10.0 mi NNW 6.9 mph - N/A   Mostly Cloudy
9:35 PM 26.6 °F 22.6 °F 19.4 °F 74% 30.17 in 10.0 mi WNW 3.5 mph - N/A   Partly Cloudy
9:55 PM 26.6 °F 22.6 °F 19.4 °F 74% 30.18 in 10.0 mi West 3.5 mph - N/A   Clear
10:15 PM 26.6 °F 21.2 °F 19.4 °F 74% 30.19 in 10.0 mi WSW 4.6 mph - N/A   Clear
10:35 PM 24.8 °F 17.9 °F 17.6 °F 74% 30.20 in 10.0 mi West 5.8 mph - N/A   Clear
10:55 PM 23.0 °F 17.0 °F 17.6 °F 80% 30.21 in 10.0 mi SW 4.6 mph - N/A   Clear
11:15 PM 23.0 °F 15.8 °F 17.6 °F 80% 30.22 in 10.0 mi SW 5.8 mph - N/A   Scattered Clouds
11:35 PM 23.0 °F 15.8 °F 17.6 °F 80% 30.22 in 10.0 mi WSW 5.8 mph - N/A   Mostly Cloudy
11:55 PM 23.0 °F 13.1 °F 17.6 °F 80% 30.22 in 10.0 mi West 9.2 mph - N/A   Overcast